Content
SEND FEEDBACK

Daily
Averages
Monthly
Summary
United States of America

UMATAC, GUAM


Home > North America > United States > Guam
Elevation: 190 feet     Latitude: 13 17N     Longitude: 144 40E

WEATHER
 
SELECT A DAY
Number of Records: 341,964;   Date Range: 1/1/95 - 7/26/14
 
SHARE

PRINT THIS DATA

[ ← Previous Day ]
WEATHER ALMANAC - JULY 3, 2013
[ Next Day → ]
[ °C ]   °F
Weather ElementAverageHighLow
Temperature82.3 °F86.4 °F (12:55 pm)78.1 °F (2:55 am)
Dewpoint78.4 °F80.6 °F (10:58 am)74.3 °F (4:55 am)
Humidity88 %100 % (8:51 pm)79 % (11:41 am)
Barometer29.84 in29.87 in (8:07 am)29.79 in (3:55 pm)
Wind Speed11.1 mph18.4 mph (12:28 am)
Wind Gust18.4 mph (11:55 am)
Weather ElementAverage
Visibility10 mi
Wind DirectionENE (65.4 °)

Weather ElementTotal
Precipitation---
Cooling Degree Days17.3 (Base 65)
Growing Degree Days32.3 (Base 50)
Averaged from 87 records on July 3, 2013
WEATHER CONDITIONS BREAKOUT
WIND DIRECTION BREAKOUT
WEATHER BY HOUR - JULY 3, 2013
[ °C ]   °F
Local TimeTemperatureDewpointHumidityBarometerVisibilityWind DirectionWind SpeedGust SpeedPrecipitationEventsConditions
12:28 AM80.6 °F77.0 °F89 %29.85 in10.0 miENE (60°)18.4 mphMostly Cloudy
12:31 AM80.6 °F75.2 °F84 %29.85 in10.0 miENE (70°)16.1 mphMostly Cloudy
12:34 AM80.6 °F77.0 °F89 %29.85 in10.0 miENE (70°)16.1 mphLight Drizzle
12:44 AM78.8 °F77.0 °F94 %29.84 in10.0 miENE (70°)11.5 mphMostly Cloudy
12:53 AM78.8 °F77.0 °F94 %29.83 in10.0 miEast (80°)10.4 mphScattered Clouds
12:55 AM78.3 °F75.9 °F92 %29.83 in10.0 miEast (90°)9.2 mph0.00 inScattered Clouds
1:12 AM78.8 °F77.0 °F94 %29.84 in10.0 miEast (90°)9.2 mphMostly Cloudy
1:28 AM78.8 °F75.2 °F89 %29.83 in10.0 miEast (90°)8.1 mphScattered Clouds
1:55 AM78.8 °F76.6 °F93 %29.82 in10.0 miEast (100°)5.8 mphClear
2:55 AM78.1 °F77.2 °F97 %29.81 in10.0 miENE (70°)5.8 mphClear
3:55 AM78.6 °F76.3 °F92 %29.81 in10.0 miESE (110°)5.8 mphScattered Clouds
4:55 AM79.9 °F74.3 °F83 %29.81 in10.0 miEast (100°)8.1 mphScattered Clouds
5:17 AM80.6 °F77.0 °F89 %29.82 in10.0 miEast (100°)10.4 mphMostly Cloudy
5:23 AM80.6 °F77.0 °F89 %29.82 in10.0 miEast (100°)11.5 mphMostly Cloudy
5:55 AM80.2 °F77.0 °F90 %29.83 in10.0 miEast (90°)9.2 mphOvercast
6:03 AM80.6 °F77.0 °F89 %29.83 in10.0 miEast (80°)9.2 mphMostly Cloudy
6:04 AM80.6 °F77.0 °F89 %29.83 in10.0 miEast (80°)8.1 mphMostly Cloudy
6:05 AM80.6 °F77.0 °F89 %29.83 in10.0 miEast (80°)9.2 mphOvercast
6:06 AM80.6 °F77.0 °F89 %29.83 in10.0 miEast (80°)9.2 mphOvercast
6:18 AM80.6 °F77.0 °F89 %29.84 in10.0 miEast (80°)10.4 mphMostly Cloudy
6:21 AM80.6 °F77.0 °F89 %29.84 in10.0 miEast (80°)9.2 mphScattered Clouds
6:55 AM80.8 °F77.9 °F91 %29.85 in10.0 miEast (90°)6.9 mphScattered Clouds
6:59 AM80.6 °F78.8 °F94 %29.86 in10.0 miEast (90°)8.1 mphMostly Cloudy
7:01 AM80.6 °F78.8 °F94 %29.86 in10.0 miEast (90°)8.1 mphScattered Clouds
7:16 AM80.6 °F78.8 °F94 %29.86 in10.0 miEast (90°)5.8 mphMostly Cloudy
7:43 AM82.4 °F78.8 °F89 %29.86 in10.0 miEast (80°)9.2 mphMostly Cloudy
7:55 AM83.5 °F79.0 °F86 %29.86 in10.0 miENE (60°)11.5 mphMostly Cloudy
8:01 AM84.2 °F78.8 °F84 %29.86 in10.0 miENE (70°)12.7 mphMostly Cloudy
8:07 AM84.2 °F78.8 °F84 %29.87 in10.0 miENE (60°)12.7 mphScattered Clouds
8:55 AM85.1 °F78.4 °F80 %29.87 in10.0 miEast (80°)10.4 mphPartly Cloudy
9:55 AM84.9 °F78.4 °F81 %29.87 in10.0 miNE (40°)11.5 mphScattered Clouds
9:56 AM84.2 °F78.8 °F84 %29.87 in10.0 miNE (50°)11.5 mphMostly Cloudy
10:55 AM86.2 °F79.9 °F81 %29.86 in10.0 miENE (70°)11.5 mphScattered Clouds
10:58 AM86.0 °F80.6 °F84 %29.86 in10.0 miENE (60°)11.5 mphMostly Cloudy
11:12 AM86.0 °F80.6 °F84 %29.86 in10.0 miENE (60°)10.4 mphScattered Clouds
11:25 AM86.0 °F80.6 °F84 %29.85 in10.0 miEast (80°)10.4 mphMostly Cloudy
11:29 AM86.0 °F80.6 °F84 %29.85 in10.0 miENE (60°)12.7 mphScattered Clouds
11:37 AM86.0 °F80.6 °F84 %29.85 in10.0 miENE (60°)10.4 mphMostly Cloudy
11:41 AM86.0 °F78.8 °F79 %29.85 in10.0 miENE (60°)11.5 mphScattered Clouds
11:42 AM86.0 °F78.8 °F79 %29.85 in10.0 miENE (60°)11.5 mphMostly Cloudy
11:55 AM86.2 °F78.8 °F79 %29.84 in10.0 miENE (60°)12.7 mph18.4 mphScattered Clouds
12:16 PM86.0 °F78.8 °F79 %29.83 in10.0 miENE (60°)12.7 mphMostly Cloudy
12:20 PM86.0 °F78.8 °F79 %29.83 in10.0 miENE (70°)9.2 mphScattered Clouds
12:22 PM86.0 °F78.8 °F79 %29.83 in10.0 miEast (90°)11.5 mphMostly Cloudy
12:41 PM86.0 °F78.8 °F79 %29.83 in10.0 miENE (60°)13.8 mphMostly Cloudy
12:55 PM86.4 °F79.0 °F79 %29.83 in10.0 miENE (60°)12.7 mphScattered Clouds
1:07 PM86.0 °F78.8 °F79 %29.82 in10.0 miENE (60°)12.7 mphMostly Cloudy
1:13 PM86.0 °F78.8 °F79 %29.83 in10.0 miENE (60°)12.7 mphMostly Cloudy
1:55 PM85.5 °F79.0 °F81 %29.82 in10.0 miENE (60°)11.5 mphScattered Clouds
2:48 PM84.2 °F78.8 °F84 %29.81 in10.0 miENE (60°)12.7 mphMostly Cloudy
2:51 PM84.2 °F78.8 °F84 %29.81 in10.0 miENE (60°)12.7 mphScattered Clouds
2:52 PM84.2 °F78.8 °F84 %29.80 in10.0 miENE (70°)12.7 mphMostly Cloudy
2:54 PM84.2 °F78.8 °F84 %29.80 in10.0 miNE (50°)10.4 mphScattered Clouds
2:55 PM85.3 °F79.0 °F81 %29.80 in10.0 miNE (50°)12.7 mphScattered Clouds
3:00 PM86.0 °F78.8 °F79 %29.80 in10.0 miENE (70°)11.5 mphMostly Cloudy
3:05 PM86.0 °F78.8 °F79 %29.80 in10.0 miENE (60°)12.7 mphScattered Clouds
3:55 PM84.6 °F78.1 °F81 %29.79 in10.0 miENE (60°)10.4 mphPartly Cloudy
4:55 PM84.4 °F78.6 °F83 %29.80 in10.0 miENE (60°)12.7 mphPartly Cloudy
5:55 PM83.3 °F78.4 °F85 %29.80 in10.0 miENE (60°)12.7 mphPartly Cloudy
6:55 PM82.0 °F78.4 °F89 %29.81 in10.0 miNE (40°)11.5 mphPartly Cloudy
7:55 PM81.7 °F78.3 °F89 %29.83 in10.0 miENE (60°)10.4 mphClear
8:04 PM82.4 °F78.8 °F89 %29.84 in10.0 miENE (60°)9.2 mphLight Drizzle
8:12 PM82.4 °F80.6 °F94 %29.84 in10.0 miNE (50°)12.7 mphRainLight Rain
8:15 PM82.4 °F78.8 °F89 %29.84 in10.0 miNE (50°)11.5 mphRainLight Rain
8:16 PM82.4 °F78.8 °F89 %29.84 in10.0 miNE (50°)11.5 mphScattered Clouds
8:20 PM80.6 °F78.8 °F94 %29.84 in10.0 miNE (50°)10.4 mphMostly Cloudy
8:26 PM80.6 °F78.8 °F94 %29.84 in10.0 miNE (50°)13.8 mphScattered Clouds
8:38 PM80.6 °F78.8 °F94 %29.85 in10.0 miNE (50°)11.5 mphLight Drizzle
8:51 PM80.6 °F80.6 °F100 %29.85 in10.0 miNE (50°)12.7 mphLight Drizzle
8:55 PM81.3 °F77.4 °F88 %29.85 in10.0 miNE (40°)15.0 mph0.00 inMostly Cloudy
9:11 PM80.6 °F78.8 °F94 %29.85 in10.0 miNE (50°)12.7 mphScattered Clouds
9:15 PM80.6 °F78.8 °F94 %29.85 in10.0 miNE (50°)11.5 mphMostly Cloudy
9:22 PM80.6 °F78.8 °F94 %29.86 in10.0 miNE (50°)12.7 mphMostly Cloudy
9:31 PM80.6 °F78.8 °F94 %29.86 in10.0 miENE (60°)11.5 mphRainLight Rain
9:32 PM80.6 °F78.8 °F94 %29.86 in10.0 miENE (60°)12.7 mphRainLight Rain
9:50 PM80.6 °F78.8 °F94 %29.86 in10.0 miNE (50°)13.8 mphMostly Cloudy
9:55 PM80.6 °F79.0 °F95 %29.86 in10.0 miNE (50°)12.7 mph0.00 inMostly Cloudy
9:58 PM80.6 °F78.8 °F94 %29.86 in10.0 miENE (60°)11.5 mphMostly Cloudy
10:24 PM80.6 °F78.8 °F94 %29.86 in10.0 miNE (50°)11.5 mphMostly Cloudy
10:31 PM80.6 °F78.8 °F94 %29.86 in10.0 miNE (50°)10.4 mphScattered Clouds
10:50 PM80.6 °F78.8 °F94 %29.86 in10.0 miNE (50°)11.5 mphMostly Cloudy
10:53 PM80.6 °F78.8 °F94 %29.86 in10.0 miNE (50°)9.2 mphScattered Clouds
10:55 PM80.6 °F78.8 °F94 %29.86 in10.0 miENE (60°)8.1 mphScattered Clouds
11:11 PM80.6 °F78.8 °F94 %29.86 in10.0 miNE (40°)10.4 mphMostly Cloudy
11:19 PM80.6 °F78.8 °F94 %29.85 in10.0 miNE (50°)12.7 mphScattered Clouds
11:47 PM80.6 °F78.8 °F94 %29.85 in10.0 miNE (50°)12.7 mphMostly Cloudy
11:55 PM81.1 °F78.6 °F92 %29.85 in10.0 miNE (50°)10.4 mphMostly Cloudy
Hourly data recorded from PGUA, located miles away from Umatac, Guam







STORIES FROM OUR PARTNERS